Location: Baia Mare
(47.6567°N, 23.5850°E)
Time: 09:20:24
(UTC+03:00)

ISS - Pass Details

Date: 15 May 2018
Orbit: 402 x 407 km, 51.6° (Epoch: 26 May)

Event Time Altitude Azimuth Distance (km) Brightness Sun altitude
Exits shadow 02:14:44 35° 65° (ENE) 676 -2.5 -22.5°
Drops below altitude 10° 02:16:45 10° 66° (ENE) 1,458 -0.5 -22.4°
Sets 02:18:50 0° 67° (ENE) 2,320 0.6 -22.3°
